This demonstration page uses our WeatherBlox Daily Observations layout. Learn more.

Left ArrowRight Arrow

34.02893, -84.19858

Hourly Observations for February 27, 2022

Temp ( °F °C ) Dew Point ( °F °C ) Humidity (%) Winds ( mph kmh ) Pressure ( in mb ) Visibility ( mi km ) Precip ( " mm )
12:53 am 00:53 Cloudy 50 10 39 3.9 66 66 Calm 30.23 1024 10 16 0.00 0.00
1:53 am 01:53 Cloudy 50 10 40 4.4 68 68 NNW 7 11 30.22 1024 10 16 0.00 0.00
2:53 am 02:53 Cloudy 49 9.4 41 5 74 74 N 7 11 30.20 1023 10 16 0.00 0.00
3:21 am 03:21 Cloudy with Light Rain 48 8.9 43 6.1 83 83 W 7 11 30.23 1024 5 8 0.00 0.00
3:53 am 03:53 Cloudy 48 8.9 44 6.7 86 86 NNW 6 9 30.19 1022 10 16 0.00 0.00
4:05 am 04:05 Cloudy 48 8.9 44 6.7 86 86 N 7 11 30.21 1023 10 16 0.00 0.00
4:53 am 04:53 Cloudy with Light Rain 48 8.9 45 7.2 89 89 Calm 30.18 1022 9 14 0.02 0.51
5:08 am 05:08 Cloudy with Light Rain 48 8.9 46 7.8 93 93 VRB 3 6 30.20 1023 5 8 0.01 0.25
5:36 am 05:36 Cloudy with Light Rain 48 8.9 45 7.2 89 89 ENE 5 7 30.19 1022 8 13 0.02 0.51
5:53 am 05:53 Cloudy with Rain 48 8.9 46 7.8 93 93 VRB 3 6 30.18 1022 6 10 0.04 1.02
6:23 am 06:23 Cloudy with Light Rain 47 8.3 46 7.8 97 97 VRB 5 7 30.21 1023 7 11 0.02 0.51
6:30 am 06:30 Cloudy with Light Rain 47 8.3 46 7.8 97 97 NE 5 7 30.21 1023 7 11 0.02 0.51
6:53 am 06:53 Cloudy with Light Rain 47 8.3 45 7.2 93 93 NE 5 7 30.21 1023 5 8 0.05 1.27
7:50 am 07:50 Cloudy with Light Rain 46 8 45 7 93 93 ENE 5 7 30.19 1022 5 8 0.04 1.02
7:53 am 07:53 Cloudy with Light Rain 47 8.3 45 7.2 93 93 VRB 5 7 30.18 1022 5 8 0.04 1.02
8:00 am 08:00 Cloudy with Light Rain 46 7.8 45 7.2 96 96 E 7 11 30.18 1022 4 6 0.00 0.00
8:15 am 08:15 Cloudy with Light Rain 47 8.3 45 7.2 93 93 VRB 3 6 30.20 1023 6 10 0.01 0.25
8:42 am 08:42 Cloudy with Light Rain 47 8.3 45 7.2 93 93 N 6 9 30.23 1024 3 4 0.05 1.27
8:53 am 08:53 Cloudy with Rain 47 8.3 46 7.8 97 97 NNW 6 9 30.24 1024 2 3 0.08 2.03
9:15 am 09:15 Cloudy with Rain 47 8.3 46 7.8 97 97 Calm 30.23 1024 2 3 0.08 2.03
9:24 am 09:24 Cloudy with Light Rain 47 8.3 46 7.8 97 97 Calm 30.23 1024 3 5 0.09 2.29
9:40 am 09:40 Cloudy with Light Rain 47 8.3 47 8.3 100 100 Calm 30.23 1024 2 3 0.11 2.79
9:51 am 09:51 Cloudy with Rain 46 8 46 8 100 100 Calm 30.22 1023 2 2 0.14 3.56
9:53 am 09:53 Cloudy with Rain 47 8.3 46 7.8 97 97 Calm 30.21 1023 2 3 0.14 3.56
10:06 am 10:06 Cloudy with Rain 47 8.3 46 7.8 97 97 VRB 3 6 30.23 1024 2 3 0.03 0.76
10:16 am 10:16 Cloudy with Light Rain 47 8.3 46 7.8 97 97 VRB 3 6 30.22 1023 3 5 0.04 1.02
10:43 am 10:43 Cloudy with Rain 47 8.3 47 8.3 100 100 Calm 30.21 1023 3 4 0.09 2.29
10:53 am 10:53 Cloudy with Light Rain 47 8.3 46 7.8 97 97 VRB 3 6 30.20 1023 3 5 0.11 2.79
11:53 am 11:53 Cloudy with Light Rain 48 8.9 47 8.3 96 96 Calm 30.19 1022 5 8 0.05 1.27
12:53 pm 12:53 Cloudy 49 9.4 48 8.9 97 97 Calm 30.15 1021 10 16 0.00 0.00
1:53 pm 13:53 Cloudy with Light Rain 50 10 48 8.9 93 93 Calm 30.13 1020 5 8 0.02 0.51
2:53 pm 14:53 Cloudy 51 10.6 48 8.9 89 89 Calm 30.11 1020 10 16 0.00 0.00
3:44 pm 15:44 Cloudy 51 10.6 48 8.9 89 89 Calm 30.11 1020 10 16 0.00 0.00
3:53 pm 15:53 Cloudy 51 10.6 48 8.9 89 89 NW 3 6 30.11 1020 10 16 0.00 0.00
4:53 pm 16:53 Cloudy 51 10.6 48 8.9 89 89 WNW 3 6 30.11 1020 10 16 0.00 0.00
5:26 pm 17:26 Cloudy 51 10.6 48 8.9 89 89 WNW 10 17 30.12 1020 10 16 0.00 0.00
5:53 pm 17:53 Cloudy 50 10 48 8.9 93 93 NW 9 15 30.13 1020 7 11 0.00 0.00
6:53 pm 18:53 Cloudy 49 9.4 47 8.3 93 93 NW 8 13 30.14 1021 9 14 0.00 0.00
7:53 pm 19:53 Cloudy 48 8.9 46 7.8 93 93 NW 7 11 30.15 1021 10 16 0.00 0.00
8:53 pm 20:53 Cloudy 46 7.8 44 6.7 93 93 NW 9 15 30.16 1021 10 16 0.00 0.00
9:53 pm 21:53 Cloudy 45 7.2 44 6.7 97 97 W 5 7 30.16 1021 10 16 0.00 0.00
10:53 pm 22:53 Cloudy 45 7.2 43 6.1 93 93 NW 7 11 30.16 1022 10 16 0.00 0.00
11:41 pm 23:41 Cloudy 45 7.2 42 5.6 90 90 WNW 6 9 30.16 1021 10 16 0.00 0.00
11:53 pm 23:53 Cloudy 45 7.2 42 5.6 90 90 NW 6 9 30.16 1021 10 16 0.00 0.00

Powered by AerisWeather